Location: Strawberry
(45.6646°N, 111.9596°W)
Time: 12:38:38
(UTC+00:00)

Transit 4A - Pass Details

Date: 08 October 2022
Orbit: 871 x 973 km, 66.8° (Epoch: 26 November)

Event Time Altitude Azimuth Distance (km) Brightness Sun altitude
Exits shadow 09:38:42 - 339° (NNW) 2,956 10.7 -39.6°
Reaches altitude 10° 09:42:18 10° 11° (N) 2,553 10.7 -39.1°
Maximum altitude 09:42:32 10° 13° (NNE) 2,550 10.7 -39.1°
Drops below altitude 10° 09:42:46 10° 16° (NNE) 2,551 10.7 -39.1°
Sets 09:48:46 0° 63° (ENE) 3,469 11.8 -38.3°
